Hundvaag 1 weather for Mar 1998
Month no. 129
Obs.
Da.
Temp. Dew Point Precip. Wind
Speed
Wind gusts Cloud cover Press. Humidity Wind dir. Sunny OPT
01.03.1998 -3,0   0,0     1       1  
02.03.1998 -1,1   0,0     0          
03.03.1998 -1,1   0,0     0          
04.03.1998 2,2   2,0     0       1  
05.03.1998 -1,7   2,0     9       1  
06.03.1998 -0,2   0,0     1       1  
07.03.1998 -1,6   0,0     0       1  
08.03.1998 -3,0   1,0     10       1  
09.03.1998 -4,2   0,0     10       1  
10.03.1998 -1,2   0,0     3       1  
11.03.1998 2,8   0,0     0       1  
12.03.1998 -0,6   9,0     10       1  
13.03.1998 4,2   3,0     8       1  
14.03.1998 2,8   0,0     1          
15.03.1998 5,6   1,0     0          
16.03.1998 5,0   10,0     10       1  
17.03.1998 3,8   3,0     0          
18.03.1998 3,4   3,0     0       1  
19.03.1998 -0,1   1,0     0          
20.03.1998 1,4   1,0     6       1  
21.03.1998 3,9   0,0     0          
22.03.1998 4,7   1,0     2       1  
23.03.1998 5,3   0,0     2       1  
24.03.1998 3,9   0,0     2          
25.03.1998 2,3   20,0     7          
26.03.1998 5,8   2,0     0          
27.03.1998 5,7   18,0     0       1  
28.03.1998 10,7   0,0     0       1  
29.03.1998 10,1   0,0     0          
30.03.1998 10,8   1,0     0          
31.03.1998 8,7   9,0     0          
Avrg/Sum 2,8   87,0     2,6       18